Location: *
(44.3683°N, 6.6958°E)
Time: 06:48:18
(UTC+00:00)

STARLINK-54 - Pass Details

Date: 14 October 2019
Orbit: 548 x 551 km, 53.0° (Epoch: 16 November)

Event Time Altitude Azimuth Distance (km) Brightness Sun altitude
Rises 18:09:14 0° 250° (WSW) 2,708 8.5 -14.7°
Reaches altitude 10° 18:11:30 10° 255° (WSW) 1,817 7.5 -15.1°
Maximum altitude 18:15:33 52° 333° (NNW) 683 4.2 -15.8°
Enters shadow 18:18:17 19° 44° (NE) 1,330 5.2 -16.3°
